Погода в Чепкас-Никольском

Россия / Чувашская Республика     54°53′55″N   47°45′21″E
темп.,
°C
ветер,
м/с
пор.,
м/с
влажн.,
%
обл.,
%
осадки,
мм/ч
давл.,
гПа
погр.,
м
18 мая, ср
ср1800:00+7с1193100 0.1 100210
03:00+6зюз2391100 0.8 100157
06:00+7з4887100 0.7 1001385
09:00+7зсз61095100 2.3 1002644
12:00+7ссз6992100 1.8 10041090
15:00+8сз588776 2.0 1006759
18:00+9сз588386 0.3 1007686
21:00+7зсз248899 0.3 100997
19 мая, чт
чт1900:00+5з3691100 0.1 1009125
03:00+5з4988100 0.1 1009346
06:00+6з5991100 0.6 1009853
09:00+6зсз7108569 0.9 1010901
12:00+9зсз6864100 0.1 10101602
15:00+9з5675100 0.5 10101185
18:00+6зсз3489100 2.9 1010525
21:00+5з38926 2.9 1011170
20 мая, пт
пт2000:00+3з36945 0.0 1011132
03:00+2сз359281 0.0 101198
06:00+3ссз4697100 0.5 1012445
09:00+6ссз566982 1.1 10121239
12:00+9сз685484 1.1 10111958
15:00+9ссз895474 2.2 10111811
18:00+8ссз71070100 0.8 1011935
21:00+5сз511875 1.0 1012390
21 мая, сб
сб2100:00+3сз5109226 0.0 1011334
03:00+2сз410949 0.0 1011281
06:00+4зсз59845 0.0 1010363
09:00+8сз796491 0.3 10081307
12:00+9ссз795099 0.4 10071842
15:00+9ссз785390 0.4 10071763
18:00+7ссз68645 0.0 10071176
21:00+3ссз37815 0.0 1007277
22 мая, вс
вс2200:00+1ссз49895 0.0 1006388
03:000ссз5109694 0.0 1006476
06:00+1ссз5981100 0.0 1006814
09:00+4с6871100 0.1 10061085
12:00+6с7965100 0.1 10061559
15:00+6ссз6969100 0.1 10071087
18:00+6ссз6971100 0.0 1007856
21:00+4с5980100 0.1 1008682